www.pogodaiklimat.ru

Погода и климат >> Архив погоды >> Хорватия >> Осиек аэропорт


ПОГОДА в Осиек аэропорту

  • Прогноз погоды в Осиек аэропорту
  • Монитор погоды в Осиек аэропорту

АРХИВ ПОГОДЫ в Осиек аэропорту

Время (UTC), дата Ветер
(напр.,м/с)
 
Видим.   Явления Облачность Т
(С)
Тd
(С)
f
(%)
Тe
(С)
Тes
(С)
Комфортность P
(гПа)
Po
(гПа)
Тmin
(С)
Tmax
(С)
R
(мм)
R24
(мм)
S
(см)
00 15.09 С 2 15 км ясно +14.4 +11.1 81 +14 +14 1028.4 1017.6
03 15.09 СЗ 2 15 км ясно +11.9 +10.1 89 +11 +11 1027.9 1017.1
06 15.09 СВ 2 15 км ясно +13.6 +10.8 83 +13 +14 1027.9 1017.1 +10.3
09 15.09 С 2 20 км ясно +21.1 +11.6 55 +23 +32 комфорт 1027.5 1017.0
12 15.09 З 2 20 км ясно +25.3 +12.7 46 +27 +37 жарко 1025.2 1014.9
15 15.09 Ю 2 20 км ясно +26.0 +12.2 42 +27 +30 жарко 1022.9 1012.6
18 15.09 В 3 20 км ясно +19.3 +13.6 70 +21 +21 комфорт 1022.3 1011.8 +26.4
21 15.09 Ю 4 20 км ясно +14.9 +12.7 87 +14 +14 1021.9 1011.3
00 16.09 С 1 20 км ясно +12.6 +11.4 92 +13 +13 1021.3 1010.6
03 16.09 штиль 0 20 км ясно +11.0 +10.3 95 +10 +10 1020.6 1009.8
06 16.09 Ю 1 10 км ясно +14.5 +13.3 93 +15 +16 1020.2 1009.6 +10.5
09 16.09 ЮЗ 2 20 км ясно +24.3 +13.6 51 +27 +36 жарко 1019.7 1009.4
12 16.09 С 1 20 км ясно +27.8 +13.2 41 +30 +41 жарко 1017.9 1007.7
15 16.09 З 3 20 км ясно +29.0 +10.6 32 +29 +31 жарко 1015.7 1005.6
18 16.09 ЮВ 1 20 км 3/0
[Ci sp]
+21.1 +12.7 59 +23 +23 комфорт 1015.7 1005.3 +29.5
21 16.09 В 2 20 км 1/0
[Ci sp]
+15.8 +12.8 82 +16 +16 1015.8 1005.3
00 17.09 Ю 2 20 км ясно +13.7 +12.3 91 +13 +13 1015.2 1004.6
03 17.09 штиль 0 20 км ясно +13.6 +12.6 94 +13 +13 1014.8 1004.2
06 17.09 ЮЗ 1 10 км 4/0
[Ac trans]
+14.7 +13.7 94 +15 +16 1015.1 1004.5 +12.5
09 17.09 Ю 2 15 км 5/0
[Ac trans]
+23.6 +15.7 61 +27 +33 жарко 1015.2 1004.9
12 17.09 С 3 20 км 3/0
[Ac trans]
+27.4 +16.5 51 +31 +38 душно 1013.6 1003.5
15 17.09 С 5 20 км 3/1 1500 м
[Cu hum Ac trans]
+27.6 +15.3 47 +30 +31 жарко 1012.2 1002.1
18 17.09 В 4 20 км 4/0
[Ac trans]
+21.6 +14.8 65 +25 +25 комфорт 1012.4 1002.1 +28.7
21 17.09 В 3 15 км 4/0
[Ac trans]
+18.2 +13.9 76 +19 +19 1013.6 1003.1
00 18.09 СЗ 5 15 км 5/3 1500 м
[Sc Ac trans]
+18.5 +14.4 77 +19 +19 1015.1 1004.7
03 18.09 СВ 3 10 км дождь 10/5 1000 м
[Sc Ac As]
+16.0 +13.7 86 +16 +16 1017.4 1006.8
06 18.09 С 3 10 км дождь 10/4 1000 м
[Sc As op]
+14.3 +12.2 87 +13 +13 1020.9 1010.2 +14.2 1
09 18.09 СВ 3 15 км {дождь} 10/0
[Ac As]
+15.6 +7.2 57 +15 +17 1023.1 1012.4
12 18.09 З 2 20 км {дождь} 10/0
[Ac As]
+15.7 +7.3 57 +16 +19 1023.3 1012.6 0.1
15 18.09 З 3 20 км 10/0
[Ac As]
+15.4 +7.0 57 +15 +15 1022.8 1012.1
18 18.09 З 2 15 км 10/0
[Ac As]
+13.7 +10.0 78 +13 +13 1023.1 1012.4 +16.4 0.1
21 18.09 СЗ 2 15 км 9/0
[Ac As]
+13.4 +10.0 80 +13 +13 1023.7 1013.0
00 19.09 С 2 15 км 6/0
[Ac trans]
+11.6 +8.8 83 +10 +10 1023.5 1012.7
03 19.09 СВ 2 15 км 10/0
[Ac As]
+11.7 +7.3 74 +11 +11 1023.4 1012.6
06 19.09 В 2 20 км 9/0
[Ac As]
+12.2 +6.6 69 +11 +12 1024.2 1013.4 +10.4
09 19.09 СВ 3 20 км 9/0
[Ac As]
+16.3 +4.6 46 +16 +19 1025.0 1014.3
12 19.09 С 5 20 км 5/0
[Ac trans]
+19.1 +3.1 35 +19 +23 1024.2 1013.6
15 19.09 С 4 20 км 4/0
[Ac trans]
+18.1 +3.0 37 +18 +19 1023.3 1012.7
18 19.09 С 2 20 км 3/0
[Ac trans]
+12.3 +5.2 62 +12 +12 1024.9 1014.1 +19.7
21 19.09 СЗ 4 20 км ясно +7.9 +3.7 75 +5 +5 1026.5 1015.5
00 20.09 З 3 20 км ясно +5.5 +2.9 83 +2 +2 1027.0 1015.9
03 20.09 З 3 20 км ясно +4.1 +2.5 89 0 0 1026.9 1015.7
06 20.09 З 2 20 км 1/0
[Ci fib]
+6.6 +4.3 85 +4 +5 1027.7 1016.6 +3.9
09 20.09 СВ 3 20 км 4/0
[Ci]
+14.2 +5.4 55 +13 +20 1028.3 1017.5
12 20.09 СЗ 2 20 км 4/3 1000 м
[Cu hum Ci fib]
+16.8 +3.5 41 +17 +24 1027.0 1016.3
15 20.09 С 2 20 км 3/1 1110 м
[Cu hum Ci fib]
+17.5 +3.2 38 +18 +20 1026.2 1015.6
18 20.09 С 3 20 км 3/0
[Ci fib]
+11.3 +4.6 63 +10 +10 1027.3 1016.4 +17.7
21 20.09 С 1 20 км ясно +7.6 +5.1 84 +7 +7 1027.9 1016.9
00 21.09 З 3 20 км ясно +5.0 +3.2 88 +1 +1 1028.0 1016.9
03 21.09 штиль 0 20 км ясно +3.6 +2.7 94 +2 +2 1027.9 1016.7
06 21.09 штиль 0 20 км 3/0
[Ci fib]
+6.8 +4.7 86 +6 +7 1028.2 1017.1 +3.0
09 21.09 ЮВ 3 20 км 1/0
[Ci fib]
+17.1 +2.8 38 +17 +24 1028.3 1017.6
12 21.09 В 3 25 км ясно +19.0 +3.0 34 +19 +27 1026.7 1016.1
15 21.09 ЮВ 3 30 км ясно +19.6 +1.6 30 +20 +22 1024.5 1014.0
18 21.09 ЮВ 2 25 км ясно +13.3 +3.3 51 +13 +13 1024.6 1013.8 +20.1
21 21.09 В 3 20 км ясно +8.0 +4.4 78 +5 +5 1024.2 1013.2

 

Местоположение метеостанции Осиек аэропорт (Хорватия): широта 45.47 долгота 18.82 высота над уровнем моря 87 м.

В архиве по умолчанию представлена погода в Осиек аэропорту за последнюю неделю. Архивные данные за месяц целиком и за предыдущие месяцы, начиная с января 2011 года, Вы можете получить, выбрав интересующий диапазон дат из раскрывающегося списка и нажав кнопку "Ввод!".


*Определитесь, кто Вы:
робот инопланетянин человек

Внимание! Время в таблицах - всемирное. Для получения местного времени необходимо прибавить поправку, которая равна 1 ч.

Смотрите также архив погоды в соседних городах и на ближайших метеорологических станциях:

Погода в Осиек-Чепине (Хорватия) (20 км)
Погода в Градиште (Хорватия) (37 км)
Погода в Сомборе (Сербия) (42 км)
Погода в Сремска-Митровице (Сербия) (70 км)
Погода в Славонски-Броде (Хорватия) (72 км)
Погода в Градачаце (Босния и Герцеговина) (72 км)
Погода в Пече (Венгрия) (75 км)
Погода в Байе (Венгрия) (80 км)
Погода в Нови-Саде (Сербия) (82 км)
Погода в Паличе (Сербия) (102 км)

Пояснения к столбцам:

Ветер - указаны скорость ветра в м/с - средняя за 10 мин, порывы в срок и между сроками (в фигурных скобках) и направление, откуда дует ветер: С - северный, СВ - северо-восточный, В - восточный, ЮВ - юго-восточный, Ю - южный, ЮЗ - юго-западный, З - западный, СЗ - северо-западный.
Видимость - горизонтальная дальность видимости в метрах или километрах. При видимости от 1 до 10 км при отсутствии осадков обычно наблюдается дымка, при ухудшении видимости до 1 км и менее - туман. В сухую погоду видимость может ухудшаться дымом, пылью или мглою.
Явления - указаны атмосферные явления, наблюдавшиеся в срок или в последний час перед сроком; фигурными скобками обозначены явления, наблюдавшиеся между сроками (за 1-3 часа до срока); квадратными скобками обозначены град или гололедные отложения с указанием их диаметра в мм.
Облачность - указаны через наклонную черту общая и нижняя облачность в баллах и высота нижней границы облаков в метрах; квадратными скобками обозначены формы облаков: Ci - перистые, Cs - перисто-слоистые, Cc - перисто-кучевые, Ac - высококучевые, As - высокослоистые, Sc - слоисто-кучевые, Ns - слоисто-дождевые, Cu - кучевые, Cb - кучево-дождевые. Подробнее классификацию облаков см. в Атласе облаков (PDF).
T - Температура воздуха - температура, измеренная на высоте 2 м над землей.
Td - Температура точки росы - температура, при понижении до которой содержащийся в воздухе водяной пар достигнет насыщения.
f - Относительная влажность воздуха - влажноcть воздуха, измеренная на высоте 2 м над землей.
Te - Эффективная температура - температура, которую ощущает одетый по сезону человек в тени. Характеристика душности погоды. При расчете учитывается влияние влажности воздуха и скорости ветра на теплоощущения человека.
Tes - Эффективная температура на солнце - температура, которую ощущает человек, с поправкой на солнечный нагрев. Характеристика знойности погоды. Зависит от высоты солнца над горизонтом, облачности и скорости ветра. Ночью, в пасмурную погоду, а также при ветре 12 м/с и более поправка равна нулю.
P - Атмосферное давление - приведенное к уровню моря атмосферное давление.
Po - Атмосферное давление - измеренное на уровне метеостанции атмосферное давление.
Tmin - Минимальная температура - минимум температуры воздуха на высоте 2 м над землей.
Tmax - Максимальная температура - максимум температуры воздуха на высоте 2 м над землей.
R - Количество осадков - Количество выпавших осадков за период времени, мм. При наведении курсора мыши на число - период времени, за который выпало указанное количество осадков.
R24 - Количество осадков - Количество выпавших осадков за 24 часа, мм.
S - Снежный покров - Высота снежного покрова, см. При наведении курсора мыши на число - состояние снежного покрова и степень покрытия местности в баллах.